Date,TemperatureHighF,TemperatureAvgF,TemperatureLowF,DewpointHighF,DewpointAvgF,DewpointLowF,HumidityHigh,HumidityAvg,HumidityLow,PressureMaxIn,PressureMinIn,WindSpeedMaxMPH,WindSpeedAvgMPH,GustSpeedMaxMPH,PrecipitationSumIn
2013-3-1,43.8,5.9,-90.0,35.0,-6.0,-99.9,71,48,27,29.67,29.52,5,0,0,0.00
2013-3-2,43.7,38.3,34.4,32.0,28.7,24.0,71,69,60,29.68,29.61,6,1,0,0.00
2013-3-3,41.2,36.5,32.3,31.0,27.1,18.0,71,69,55,29.63,29.55,11,2,0,0.00
2013-3-4,43.2,35.8,30.1,29.0,24.4,16.0,72,64,53,29.71,29.57,10,2,0,0.00
2013-3-5,46.6,37.5,31.6,36.0,25.7,9.0,72,63,35,30.05,29.71,11,1,0,0.00
2013-3-6,43.5,38.0,34.4,34.0,17.2,7.0,69,45,29,30.05,29.91,11,4,0,0.06
2013-3-7,36.8,33.7,33.9,18.0,4.7,-99.9,47,34,31,29.91,29.86,16,6,0,0.67
2013-3-8,39.2,6.1,37.5,29.0,-80.7,-99.9,68,13,27,30.05,29.84,11,3,0,0.12
2013-3-9,42.9,36.6,28.6,33.0,23.2,3.0,69,59,33,30.32,30.05,7,2,0,0.02
2013-3-10,47.1,38.2,30.0,37.0,22.4,3.0,70,55,30,30.38,30.31,5,1,0,0.01
2013-3-11,47.4,40.0,35.4,34.0,20.7,12.0,62,47,31,30.33,30.18,18,4,0,0.00
2013-3-12,48.6,16.3,40.6,13.0,-59.2,-99.9,31,12,23,30.19,29.75,23,4,0,0.83
2013-3-13,56.1,27.3,35.9,39.0,-24.2,-99.9,66,32,43,29.79,29.68,12,2,0,0.05
2013-3-14,38.5,33.1,25.4,26.0,20.0,9.0,71,59,47,29.84,29.70,15,2,0,0.00
2013-3-15,39.8,31.3,22.4,28.0,18.6,10.0,70,60,39,29.88,29.67,23,6,0,0.00
2013-3-16,39.5,35.0,28.9,27.0,23.0,16.0,71,62,42,29.87,29.69,8,2,0,0.00
2013-3-17,41.8,34.1,27.7,26.0,18.0,8.0,71,54,32,30.29,29.86,8,1,0,0.00
2013-3-18,37.1,30.4,21.1,25.0,17.6,7.0,70,60,48,30.45,30.24,9,1,0,0.00
2013-3-19,38.2,16.2,31.4,26.0,-49.1,-99.9,70,17,26,30.23,29.50,15,3,0,0.64
2013-3-20,42.5,31.8,28.5,28.0,10.1,-99.9,69,53,27,29.82,29.66,18,5,0,0.03
2013-3-21,40.7,32.7,28.0,29.0,15.1,1.0,67,50,29,29.82,29.59,5,1,0,0.00
2013-3-22,40.2,32.5,25.5,28.0,14.4,0.0,71,49,29,29.76,29.60,11,2,0,0.18
2013-3-23,45.2,37.0,29.6,27.0,23.4,21.0,72,59,43,29.78,29.64,12,4,0,0.00
2013-3-24,49.0,38.1,30.9,35.0,26.4,22.0,71,63,47,29.82,29.73,6,2,0,0.00
2013-3-25,47.8,38.5,30.3,36.0,25.5,14.0,70,60,42,29.76,29.46,10,2,0,0.02
2013-3-26,51.6,41.3,33.1,32.0,27.3,14.0,71,58,43,29.77,29.46,7,2,0,0.00
2013-3-27,53.7,43.6,31.2,34.0,27.4,22.0,72,55,37,29.85,29.73,8,1,0,0.00
2013-3-28,51.6,42.5,36.7,38.0,28.0,12.0,70,58,35,30.02,29.84,7,1,0,0.02
2013-3-29,57.7,44.8,37.3,41.0,33.9,27.0,70,66,52,30.04,29.98,13,2,0,0.01
2013-3-30,52.5,44.6,32.4,39.0,33.1,14.0,70,64,47,30.10,30.02,16,2,0,0.00
2013-3-31,50.3,41.4,28.1,40.0,26.0,7.0,70,55,34,30.13,29.76,14,3,0,0.05